EDW14K EDDN-LFKB

Flight info

Callsign EDW14K
Flight time 1h 16m
Altitude 36000
Route BOLSI1C BOLSI Y167 AKANU DCT ALD DCT ABREG/N0457F350 DCT LIN DCT GEN DCT LIGUR LIGUR1R
Aircraft A320/M-SDE3FGHIRWY/LB1

Departure

Time 2026-05-08 18:10
Airport Nuremberg Airport (EDDN)

Arrival

Time 2026-05-08 19:26
Airport Bastia-Poretta International airport (LFKB)
Time Latitude Longitude Altitude Speed Heading
2026-05-08 17:49 49.49651 11.06985 1023 ft 0 kts
2026-05-08 18:03 49.49673 11.07004 1022 ft 5 kts 45°
2026-05-08 18:03 49.49680 11.07033 1023 ft 1 kts 84°
2026-05-08 18:03 49.49675 11.07093 1023 ft 12 kts 99°
2026-05-08 18:03 49.49670 11.07201 1026 ft 9 kts 70°
2026-05-08 18:04 49.49691 11.07228 1026 ft 0 kts
2026-05-08 18:04 49.49692 11.07228 1026 ft 1 kts
2026-05-08 18:04 49.49733 11.07196 1025 ft 9 kts 304°
2026-05-08 18:05 49.49749 11.07094 1023 ft 10 kts 278°
2026-05-08 18:05 49.49763 11.06938 1020 ft 18 kts 278°
2026-05-08 18:05 49.49781 11.06756 1018 ft 14 kts 278°
2026-05-08 18:05 49.49795 11.06612 1017 ft 13 kts 278°
2026-05-08 18:06 49.49806 11.06493 1018 ft 10 kts 278°
2026-05-08 18:06 49.49814 11.06409 1019 ft 7 kts 278°
2026-05-08 18:06 49.49824 11.06309 1019 ft 14 kts 279°
2026-05-08 18:06 49.49839 11.06167 1019 ft 12 kts 278°
2026-05-08 18:07 49.49851 11.06054 1021 ft 9 kts 283°
2026-05-08 18:07 49.49875 11.05995 1022 ft 6 kts 318°
2026-05-08 18:07 49.49930 11.05955 1021 ft 11 kts 339°
2026-05-08 18:07 49.49950 11.05943 1020 ft 0 kts 340°
2026-05-08 18:09 49.49977 11.05934 1019 ft 10 kts 350°
2026-05-08 18:09 49.50036 11.05995 1019 ft 11 kts 64°
2026-05-08 18:09 49.50035 11.06118 1020 ft 16 kts 98°
2026-05-08 18:09 49.49985 11.06635 1020 ft 85 kts 98°
2026-05-08 18:10 49.49866 11.07854 1034 ft 143 kts 98°
2026-05-08 18:10 49.49700 11.09488 1404 ft 156 kts 96°
2026-05-08 18:10 49.49534 11.11153 2031 ft 159 kts 95°
2026-05-08 18:10 49.49358 11.12883 2470 ft 173 kts 96°
2026-05-08 18:11 49.49169 11.14809 2795 ft 192 kts 96°
2026-05-08 18:11 49.48962 11.16970 3053 ft 217 kts 96°
2026-05-08 18:11 49.48728 11.19386 3414 ft 240 kts 97°
2026-05-08 18:11 49.48448 11.22019 3954 ft 255 kts 102°
2026-05-08 18:12 49.47580 11.24416 4695 ft 265 kts 138°
2026-05-08 18:12 49.45933 11.25649 5485 ft 268 kts 171°
2026-05-08 18:12 49.44068 11.25732 6381 ft 268 kts 186°
2026-05-08 18:12 49.42208 11.25362 7190 ft 271 kts 191°
2026-05-08 18:13 49.40336 11.24881 7970 ft 275 kts 191°
2026-05-08 18:13 49.38431 11.24422 8736 ft 279 kts 189°
2026-05-08 18:13 49.36489 11.24028 9513 ft 284 kts 188°
2026-05-08 18:13 49.34542 11.23640 10242 ft 287 kts 194°
2026-05-08 18:14 49.32683 11.22518 10929 ft 289 kts 213°
2026-05-08 18:14 49.31154 11.20523 11510 ft 296 kts 231°
2026-05-08 18:14 49.30117 11.17688 11687 ft 317 kts 253°
2026-05-08 18:14 49.29553 11.14308 11826 ft 339 kts 257°
2026-05-08 18:15 49.28979 11.10699 12081 ft 356 kts 256°
2026-05-08 18:15 49.28379 11.06983 12679 ft 361 kts 256°
2026-05-08 18:15 49.27762 11.03232 13353 ft 364 kts 256°
2026-05-08 18:15 49.27135 10.99461 14022 ft 367 kts 256°
2026-05-08 18:16 49.26499 10.95658 14618 ft 370 kts 256°
2026-05-08 18:16 49.25858 10.91836 15209 ft 373 kts 256°
2026-05-08 18:16 49.25212 10.87977 15791 ft 376 kts 256°
2026-05-08 18:16 49.24547 10.84144 16337 ft 379 kts 252°
2026-05-08 18:17 49.23475 10.80444 16906 ft 383 kts 239°
2026-05-08 18:17 49.21871 10.77173 17467 ft 386 kts 227°
2026-05-08 18:17 49.19807 10.74511 18082 ft 390 kts 214°
2026-05-08 18:17 49.17376 10.72611 18620 ft 395 kts 201°
2026-05-08 18:18 49.14784 10.71171 19118 ft 397 kts 201°
2026-05-08 18:18 49.12174 10.69734 19608 ft 400 kts 201°
2026-05-08 18:18 49.09547 10.68286 20012 ft 402 kts 201°
2026-05-08 18:18 49.06907 10.66825 20443 ft 405 kts 201°
2026-05-08 18:19 49.04241 10.65385 20913 ft 407 kts 200°
2026-05-08 18:19 49.01558 10.64133 21346 ft 410 kts 198°
2026-05-08 18:19 48.98792 10.62994 21786 ft 413 kts 196°
2026-05-08 18:19 48.95997 10.61921 22211 ft 416 kts 196°
2026-05-08 18:20 48.93173 10.60853 22623 ft 418 kts 196°
2026-05-08 18:20 48.90342 10.59767 23020 ft 421 kts 197°
2026-05-08 18:20 48.87502 10.58652 23417 ft 423 kts 197°
2026-05-08 18:20 48.84641 10.57499 23756 ft 425 kts 197°
2026-05-08 18:21 48.81780 10.56327 24074 ft 427 kts 197°
2026-05-08 18:21 48.78903 10.55142 24402 ft 429 kts 198°
2026-05-08 18:21 48.76020 10.53957 24728 ft 430 kts 198°
2026-05-08 18:21 48.73129 10.52775 25056 ft 431 kts 197°
2026-05-08 18:22 48.70227 10.51593 25380 ft 432 kts 198°
2026-05-08 18:22 48.67323 10.50413 25690 ft 433 kts 197°
2026-05-08 18:22 48.64403 10.49230 26004 ft 434 kts 197°
2026-05-08 18:22 48.61517 10.48064 26301 ft 436 kts 197°
2026-05-08 18:23 48.58579 10.46882 26572 ft 437 kts 197°
2026-05-08 18:23 48.55644 10.45707 26866 ft 437 kts 197°
2026-05-08 18:23 48.52694 10.44528 27144 ft 438 kts 197°
2026-05-08 18:23 48.49739 10.43347 27396 ft 439 kts 198°
2026-05-08 18:24 48.46782 10.42164 27659 ft 440 kts 198°
2026-05-08 18:24 48.43821 10.40976 27895 ft 441 kts 198°
2026-05-08 18:24 48.40847 10.39784 28154 ft 442 kts 198°
2026-05-08 18:24 48.37881 10.38599 28493 ft 440 kts 198°
2026-05-08 18:25 48.34928 10.37420 28839 ft 438 kts 198°
2026-05-08 18:25 48.31986 10.36243 29192 ft 437 kts 198°
2026-05-08 18:25 48.29052 10.35067 29535 ft 435 kts 198°
2026-05-08 18:25 48.26164 10.33914 29860 ft 434 kts 198°
2026-05-08 18:26 48.23250 10.32755 30197 ft 433 kts 198°
2026-05-08 18:26 48.20339 10.31602 30477 ft 432 kts 198°
2026-05-08 18:26 48.17430 10.30454 30730 ft 432 kts 198°
2026-05-08 18:26 48.14530 10.29306 30990 ft 431 kts 198°
2026-05-08 18:27 48.11625 10.28153 31232 ft 431 kts 198°
2026-05-08 18:27 48.09705 10.27392 31393 ft 432 kts 198°
2026-05-08 18:27 48.05819 10.25855 31715 ft 432 kts 198°
2026-05-08 18:27 48.02911 10.24710 31941 ft 432 kts 198°
2026-05-08 18:28 48.00000 10.23566 32171 ft 433 kts 198°
2026-05-08 18:28 47.97082 10.22413 32338 ft 435 kts 199°
2026-05-08 18:28 47.94155 10.21218 32528 ft 436 kts 199°
2026-05-08 18:28 47.91232 10.19995 32746 ft 437 kts 199°
2026-05-08 18:29 47.88304 10.18754 32967 ft 437 kts 200°
2026-05-08 18:29 47.85377 10.17510 33206 ft 437 kts 200°
2026-05-08 18:29 47.82448 10.16278 33444 ft 438 kts 200°
2026-05-08 18:29 47.79513 10.15055 33673 ft 438 kts 199°
2026-05-08 18:30 47.76574 10.13839 33896 ft 438 kts 200°
2026-05-08 18:30 47.73633 10.12626 34119 ft 439 kts 200°
2026-05-08 18:30 47.70692 10.11414 34330 ft 439 kts 200°
2026-05-08 18:30 47.67747 10.10200 34540 ft 439 kts 200°
2026-05-08 18:31 47.64833 10.09000 34743 ft 439 kts 200°
2026-05-08 18:31 47.61888 10.07789 34938 ft 439 kts 200°
2026-05-08 18:31 47.58941 10.06577 35126 ft 439 kts 200°
2026-05-08 18:31 47.55988 10.05364 35303 ft 440 kts 200°
2026-05-08 18:32 47.53035 10.04150 35475 ft 440 kts 200°
2026-05-08 18:32 47.50082 10.02940 35652 ft 440 kts 200°
2026-05-08 18:32 47.47134 10.01736 35828 ft 440 kts 199°
2026-05-08 18:32 47.44176 10.00533 35986 ft 441 kts 199°
2026-05-08 18:33 47.38238 9.98105 36037 ft 444 kts 199°
2026-05-08 18:33 47.32269 9.95668 36040 ft 445 kts 200°
2026-05-08 18:34 47.26295 9.93236 36029 ft 446 kts 200°
2026-05-08 18:34 47.20345 9.90824 36051 ft 446 kts 200°
2026-05-08 18:35 47.14364 9.88405 36029 ft 446 kts 200°
2026-05-08 18:35 47.08377 9.85983 36038 ft 447 kts 200°
2026-05-08 18:36 47.02376 9.83568 36041 ft 447 kts 200°
2026-05-08 18:36 46.96366 9.81154 36049 ft 448 kts 200°
2026-05-08 18:37 46.90352 9.78756 36056 ft 448 kts 200°
2026-05-08 18:37 46.84337 9.76350 36070 ft 448 kts 200°
2026-05-08 18:38 46.78356 9.73963 36088 ft 449 kts 200°
2026-05-08 18:38 46.72329 9.71570 36083 ft 449 kts 200°
2026-05-08 18:39 46.66302 9.69177 36096 ft 449 kts 200°
2026-05-08 18:39 46.60274 9.66779 36103 ft 449 kts 200°
2026-05-08 18:40 46.54247 9.64387 36088 ft 449 kts 200°
2026-05-08 18:40 46.48220 9.62015 36092 ft 448 kts 200°
2026-05-08 18:41 46.42200 9.59658 36094 ft 448 kts 200°
2026-05-08 18:41 46.36178 9.57292 36095 ft 448 kts 200°
2026-05-08 18:42 46.30184 9.54944 36099 ft 449 kts 200°
2026-05-08 18:42 46.24100 9.52816 36105 ft 451 kts 198°
2026-05-08 18:43 46.17965 9.50885 36106 ft 451 kts 197°
2026-05-08 18:43 46.11830 9.48931 36096 ft 450 kts 198°
2026-05-08 18:44 46.05717 9.46925 36091 ft 450 kts 198°
2026-05-08 18:44 45.99609 9.44902 36089 ft 450 kts 198°
2026-05-08 18:45 45.93542 9.42912 36075 ft 450 kts 199°
2026-05-08 18:45 45.87448 9.40918 36093 ft 449 kts 198°
2026-05-08 18:46 45.81355 9.38926 36088 ft 449 kts 198°
2026-05-08 18:46 45.75259 9.36944 36065 ft 449 kts 198°
2026-05-08 18:47 45.69171 9.34972 36067 ft 448 kts 198°
2026-05-08 18:47 45.63077 9.33000 36074 ft 448 kts 198°
2026-05-08 18:48 45.56992 9.31024 36051 ft 448 kts 198°
2026-05-08 18:48 45.50949 9.29079 36067 ft 448 kts 198°
2026-05-08 18:49 45.44841 9.27276 36067 ft 451 kts 193°
2026-05-08 18:49 45.38612 9.26091 36051 ft 451 kts 193°
2026-05-08 18:50 45.32380 9.24929 36065 ft 451 kts 193°
2026-05-08 18:50 45.26165 9.23765 36067 ft 450 kts 193°
2026-05-08 18:51 45.19953 9.22600 36044 ft 449 kts 193°
2026-05-08 18:51 45.13792 9.21440 36056 ft 448 kts 193°
2026-05-08 18:52 45.07612 9.20276 36060 ft 448 kts 193°
2026-05-08 18:52 45.01429 9.19121 36053 ft 448 kts 193°
2026-05-08 18:53 44.95247 9.17973 36057 ft 447 kts 193°
2026-05-08 18:53 44.89087 9.16830 36266 ft 446 kts 193°
2026-05-08 18:54 44.86011 9.16261 36369 ft 447 kts 193°
2026-05-08 18:54 44.82932 9.15690 36104 ft 444 kts 193°
2026-05-08 18:54 44.79880 9.15123 35838 ft 440 kts 193°
2026-05-08 18:54 44.76856 9.14562 35588 ft 437 kts 193°
2026-05-08 18:55 44.70912 9.13474 35116 ft 430 kts 194°
2026-05-08 18:55 44.67921 9.12922 35033 ft 436 kts 194°
2026-05-08 18:56 44.62836 9.11970 35029 ft 443 kts 193°
2026-05-08 18:56 44.56718 9.10838 35046 ft 444 kts 193°
2026-05-08 18:57 44.50633 9.09729 35043 ft 444 kts 193°
2026-05-08 18:57 44.44499 9.08612 35042 ft 444 kts 193°
2026-05-08 18:58 44.38360 9.07606 35035 ft 444 kts 191°
2026-05-08 18:58 44.32184 9.06894 35036 ft 446 kts 190°
2026-05-08 18:59 44.25989 9.06240 35051 ft 446 kts 190°
2026-05-08 18:59 44.19817 9.05533 35045 ft 444 kts 190°
2026-05-08 18:59 44.16733 9.05163 34573 ft 447 kts 190°
2026-05-08 19:00 44.13611 9.04780 33519 ft 452 kts 191°
2026-05-08 19:00 44.10474 9.04396 32547 ft 454 kts 190°
2026-05-08 19:00 44.07323 9.04011 31566 ft 456 kts 190°
2026-05-08 19:00 44.04149 9.03629 30559 ft 459 kts 189°
2026-05-08 19:01 44.00944 9.03247 29331 ft 465 kts 189°
2026-05-08 19:01 43.97713 9.02866 28218 ft 467 kts 188°
2026-05-08 19:01 43.94471 9.02484 27006 ft 469 kts 188°
2026-05-08 19:01 43.91202 9.02094 25766 ft 474 kts 187°
2026-05-08 19:02 43.87927 9.01703 24924 ft 469 kts 187°
2026-05-08 19:02 43.84690 9.01319 24096 ft 465 kts 187°
2026-05-08 19:02 43.81473 9.00941 23213 ft 462 kts 187°
2026-05-08 19:02 43.78288 9.00569 22418 ft 456 kts 187°
2026-05-08 19:03 43.75183 9.00204 21680 ft 451 kts 187°
2026-05-08 19:03 43.72075 8.99836 20962 ft 446 kts 187°
2026-05-08 19:03 43.68991 8.99470 20253 ft 442 kts 186°
2026-05-08 19:03 43.65941 8.99110 19557 ft 437 kts 187°
2026-05-08 19:04 43.62921 8.98758 18892 ft 434 kts 187°
2026-05-08 19:04 43.59932 8.98409 18236 ft 430 kts 186°
2026-05-08 19:04 43.56966 8.98060 17564 ft 425 kts 186°
2026-05-08 19:04 43.54038 8.97717 16976 ft 419 kts 186°
2026-05-08 19:05 43.51151 8.97370 16413 ft 414 kts 186°
2026-05-08 19:05 43.48295 8.97021 15858 ft 409 kts 186°
2026-05-08 19:05 43.45475 8.96672 15328 ft 405 kts 186°
2026-05-08 19:05 43.42687 8.96324 14795 ft 400 kts 186°
2026-05-08 19:06 43.39925 8.95977 14260 ft 397 kts 186°
2026-05-08 19:06 43.37217 8.95638 13805 ft 395 kts 186°
2026-05-08 19:06 43.34473 8.95314 13476 ft 396 kts 185°
2026-05-08 19:06 43.31729 8.95005 13135 ft 395 kts 185°
2026-05-08 19:07 43.28996 8.94706 12792 ft 393 kts 185°
2026-05-08 19:07 43.26278 8.94452 12449 ft 391 kts 181°
2026-05-08 19:07 43.23576 8.94762 12115 ft 390 kts 170°
2026-05-08 19:07 43.20979 8.95785 11776 ft 388 kts 158°
2026-05-08 19:08 43.18583 8.97452 11437 ft 386 kts 149°
2026-05-08 19:08 43.16306 8.99344 11154 ft 376 kts 149°
2026-05-08 19:08 43.14112 9.01156 11025 ft 360 kts 149°
2026-05-08 19:08 43.12014 9.02882 10900 ft 344 kts 149°
2026-05-08 19:09 43.10000 9.04538 10777 ft 330 kts 149°
2026-05-08 19:09 43.08069 9.06127 10650 ft 318 kts 149°
2026-05-08 19:09 43.06209 9.07657 10530 ft 306 kts 148°
2026-05-08 19:09 43.04414 9.09134 10353 ft 298 kts 148°
2026-05-08 19:10 43.02655 9.10578 10152 ft 291 kts 148°
2026-05-08 19:10 43.00942 9.11987 10083 ft 291 kts 148°
2026-05-08 19:10 42.99208 9.13412 9925 ft 291 kts 148°
2026-05-08 19:10 42.97475 9.14830 9716 ft 289 kts 148°
2026-05-08 19:11 42.95748 9.16240 9514 ft 289 kts 148°
2026-05-08 19:11 42.94028 9.17645 9312 ft 288 kts 148°
2026-05-08 19:11 42.92315 9.19047 9116 ft 287 kts 148°
2026-05-08 19:11 42.90604 9.20448 8916 ft 286 kts 148°
2026-05-08 19:12 42.88899 9.21846 8718 ft 285 kts 148°
2026-05-08 19:12 42.87199 9.23237 8523 ft 285 kts 148°
2026-05-08 19:12 42.85502 9.24626 8330 ft 284 kts 148°
2026-05-08 19:12 42.83806 9.26014 8134 ft 285 kts 148°
2026-05-08 19:13 42.82108 9.27400 7935 ft 284 kts 149°
2026-05-08 19:13 42.80411 9.28781 7737 ft 283 kts 149°
2026-05-08 19:13 42.78742 9.30137 7545 ft 283 kts 149°
2026-05-08 19:13 42.77056 9.31504 7351 ft 281 kts 149°
2026-05-08 19:14 42.75375 9.32867 7157 ft 280 kts 149°
2026-05-08 19:14 42.73703 9.34227 6965 ft 280 kts 149°
2026-05-08 19:14 42.72032 9.35585 6757 ft 279 kts 149°
2026-05-08 19:14 42.70369 9.36936 6561 ft 278 kts 149°
2026-05-08 19:15 42.68712 9.38283 6371 ft 277 kts 149°
2026-05-08 19:15 42.67064 9.39623 6174 ft 276 kts 149°
2026-05-08 19:15 42.65417 9.40958 5987 ft 275 kts 149°
2026-05-08 19:15 42.63781 9.42285 5797 ft 274 kts 149°
2026-05-08 19:16 42.62144 9.43609 5610 ft 273 kts 149°
2026-05-08 19:16 42.60514 9.44926 5417 ft 272 kts 149°
2026-05-08 19:16 42.58892 9.46239 5237 ft 271 kts 149°
2026-05-08 19:16 42.57273 9.47549 5044 ft 271 kts 149°
2026-05-08 19:17 42.55645 9.48842 4861 ft 271 kts 149°
2026-05-08 19:17 42.54014 9.50114 4669 ft 270 kts 149°
2026-05-08 19:17 42.52387 9.51377 4483 ft 269 kts 149°
2026-05-08 19:17 42.50760 9.52639 4299 ft 268 kts 149°
2026-05-08 19:18 42.49144 9.53893 4110 ft 267 kts 149°
2026-05-08 19:18 42.47532 9.55144 3930 ft 266 kts 149°
2026-05-08 19:18 42.45940 9.56381 3787 ft 258 kts 149°
2026-05-08 19:18 42.44425 9.57557 3680 ft 244 kts 149°
2026-05-08 19:19 42.42988 9.58665 3573 ft 232 kts 149°
2026-05-08 19:19 42.41592 9.59729 3477 ft 228 kts 150°
2026-05-08 19:19 42.40244 9.60750 3380 ft 217 kts 150°
2026-05-08 19:19 42.38972 9.61712 3283 ft 207 kts 150°
2026-05-08 19:20 42.37660 9.62425 3204 ft 203 kts 174°
2026-05-08 19:20 42.37182 9.62443 3191 ft 204 kts 185°
2026-05-08 19:20 42.35269 9.60808 3082 ft 204 kts 243°
2026-05-08 19:20 42.34972 9.58963 3018 ft 203 kts 277°
2026-05-08 19:21 42.35481 9.57222 2944 ft 201 kts 311°
2026-05-08 19:21 42.36549 9.56183 2922 ft 183 kts 342°
2026-05-08 19:21 42.37718 9.55707 2839 ft 169 kts 344°
2026-05-08 19:21 42.38784 9.55264 2817 ft 153 kts 344°
2026-05-08 19:22 42.39783 9.54850 2745 ft 148 kts 344°
2026-05-08 19:22 42.40764 9.54451 2675 ft 146 kts 344°
2026-05-08 19:22 42.41730 9.54034 2556 ft 145 kts 342°
2026-05-08 19:22 42.42685 9.53590 2417 ft 145 kts 342°
2026-05-08 19:23 42.43646 9.53182 2208 ft 144 kts 345°
2026-05-08 19:23 42.44608 9.52828 1999 ft 143 kts 347°
2026-05-08 19:23 42.45565 9.52479 1802 ft 142 kts 344°
2026-05-08 19:23 42.46510 9.52090 1633 ft 142 kts 344°
2026-05-08 19:24 42.47452 9.51704 1461 ft 141 kts 343°
2026-05-08 19:24 42.48391 9.51309 1280 ft 141 kts 343°
2026-05-08 19:24 42.49317 9.50872 1086 ft 141 kts 342°
2026-05-08 19:24 42.50255 9.50478 877 ft 140 kts 344°
2026-05-08 19:25 42.51185 9.50090 665 ft 139 kts 343°
2026-05-08 19:25 42.52107 9.49700 512 ft 139 kts 343°
2026-05-08 19:25 42.53031 9.49313 320 ft 138 kts 343°
2026-05-08 19:25 42.53950 9.48925 151 ft 138 kts 343°
2026-05-08 19:26 42.54852 9.48551 41 ft 126 kts 343°
2026-05-08 19:26 42.55450 9.48300 37 ft 52 kts 343°
2026-05-08 19:26 42.55770 9.48168 32 ft 45 kts 343°
2026-05-08 19:26 42.55959 9.48049 32 ft 20 kts 292°
2026-05-08 19:27 42.55924 9.47880 32 ft 20 kts 218°
2026-05-08 19:27 42.55798 9.47894 33 ft 19 kts 163°
2026-05-08 19:27 42.55675 9.47945 34 ft 18 kts 163°
2026-05-08 19:27 42.55557 9.47997 35 ft 18 kts 162°
2026-05-08 19:28 42.55441 9.48044 35 ft 17 kts 163°
2026-05-08 19:28 42.55328 9.48090 36 ft 16 kts 163°